When you browse on this site, cookies collect data to enhance your experience and personalize the content and advertising you see.
Visit our Privacy Policy to learn more. By continuing to use the site, you agree to this use of cookies and data.
  • Em Portugal
  • Lista de países
  • Para 7 dias
  • Temperatura da água
  • Mapa do tempo
  • Widgets de tempo
  • user-avatar
    Iniciar Sessão

    Previsão horária em Taba

    Hoje, 15 Outubro, Terça-feira

    Tempo Temperatura Precipitação Vento Pressão Humidade
    00:00 +25°C° 0.1 mm 1 m/s 694 mmHg 38%
    01:00 +25°C° 0.1 mm 1 m/s 693 mmHg 39%
    02:00 +24°C° 0.1 mm 1 m/s 693 mmHg 40%
    03:00 +24°C° 0.2 mm 1 m/s 693 mmHg 40%
    04:00 +24°C° 0.2 mm 2 m/s 693 mmHg 41%
    05:00 +24°C° 0.2 mm 2 m/s 693 mmHg 41%
    06:00 +26°C° 0 mm 1 m/s 693 mmHg 36%
    07:00 +28°C° 0 mm 1 m/s 694 mmHg 32%
    08:00 +29°C° 0 mm 1 m/s 694 mmHg 27%
    09:00 +31°C° 0 mm 2 m/s 694 mmHg 24%
    10:00 +34°C° 0 mm 2 m/s 695 mmHg 22%
    11:00 +35°C° 0 mm 2 m/s 695 mmHg 19%
    12:00 +35°C° 0.1 mm 3 m/s 694 mmHg 20%
    13:00 +34°C° 0.1 mm 3 m/s 694 mmHg 21%
    14:00 +33°C° 0.1 mm 4 m/s 693 mmHg 22%
    15:00 +32°C° 0.3 mm 4 m/s 693 mmHg 25%
    16:00 +30°C° 0.3 mm 4 m/s 693 mmHg 28%
    17:00 +29°C° 0.3 mm 5 m/s 693 mmHg 30%
    18:00 +28°C° 0.1 mm 4 m/s 693 mmHg 33%
    19:00 +27°C° 0.1 mm 3 m/s 694 mmHg 35%
    20:00 +26°C° 0.1 mm 2 m/s 694 mmHg 38%
    21:00 +26°C° 0.2 mm 3 m/s 694 mmHg 37%
    22:00 +26°C° 0.2 mm 3 m/s 694 mmHg 37%
    23:00 +26°C° 0.2 mm 3 m/s 694 mmHg 37%

    Amanhã, 16 Outubro, Quarta-feira

    Tempo Temperatura Precipitação Vento Pressão Humidade
    00:00 +25°C° 0 mm 3 m/s 693 mmHg 38%
    01:00 +25°C° 0 mm 2 m/s 693 mmHg 39%
    02:00 +24°C° 0 mm 2 m/s 693 mmHg 40%
    03:00 +24°C° 0 mm 2 m/s 693 mmHg 41%
    04:00 +23°C° 0 mm 1 m/s 693 mmHg 43%
    05:00 +23°C° 0 mm 1 m/s 693 mmHg 44%
    06:00 +24°C° 0.1 mm 1 m/s 693 mmHg 42%
    07:00 +25°C° 0.1 mm 2 m/s 694 mmHg 40%
    08:00 +26°C° 0.1 mm 2 m/s 694 mmHg 38%
    09:00 +28°C° 0 mm 2 m/s 694 mmHg 34%
    10:00 +29°C° 0 mm 1 m/s 694 mmHg 30%
    11:00 +31°C° 0 mm 1 m/s 694 mmHg 26%
    12:00 +32°C° 0.1 mm 1 m/s 694 mmHg 24%
    13:00 +32°C° 0.1 mm 2 m/s 693 mmHg 23%
    14:00 +34°C° 0.1 mm 2 m/s 693 mmHg 21%
    15:00 +32°C° 0.2 mm 2 m/s 693 mmHg 25%
    16:00 +31°C° 0.2 mm 2 m/s 693 mmHg 28%
    17:00 +30°C° 0.2 mm 2 m/s 693 mmHg 31%
    18:00 +28°C° 0 mm 3 m/s 693 mmHg 44%
    19:00 +26°C° 0 mm 3 m/s 693 mmHg 56%
    20:00 +25°C° 0 mm 4 m/s 693 mmHg 69%
    21:00 +23°C° 0 mm 4 m/s 693 mmHg 73%
    22:00 +22°C° 0 mm 4 m/s 693 mmHg 77%
    23:00 +21°C° 0 mm 4 m/s 693 mmHg 80%

    Depois de amanhã, 17 Outubro, Quinta-feira

    Tempo Temperatura Precipitação Vento Pressão Humidade
    00:00 +21°C° 0 mm 3 m/s 693 mmHg 82%
    01:00 +21°C° 0 mm 3 m/s 693 mmHg 83%
    02:00 +20°C° 0 mm 2 m/s 693 mmHg 85%
    03:00 +20°C° 0 mm 2 m/s 693 mmHg 85%
    04:00 +20°C° 0 mm 2 m/s 693 mmHg 86%
    05:00 +20°C° 0 mm 2 m/s 693 mmHg 87%
    06:00 +20°C° 0 mm 2 m/s 693 mmHg 84%
    07:00 +21°C° 0 mm 2 m/s 694 mmHg 81%
    08:00 +21°C° 0 mm 2 m/s 694 mmHg 78%
    09:00 +24°C° 0 mm 2 m/s 694 mmHg 68%
    10:00 +26°C° 0 mm 2 m/s 694 mmHg 57%
    11:00 +28°C° 0 mm 1 m/s 694 mmHg 47%
    12:00 +29°C° 0 mm 2 m/s 694 mmHg 43%
    13:00 +30°C° 0 mm 2 m/s 694 mmHg 38%
    14:00 +32°C° 0 mm 2 m/s 693 mmHg 33%
    15:00 +31°C° 0.1 mm 3 m/s 693 mmHg 38%
    16:00 +29°C° 0.1 mm 4 m/s 693 mmHg 42%
    17:00 +28°C° 0.1 mm 5 m/s 694 mmHg 47%
    18:00 +27°C° 0 mm 5 m/s 694 mmHg 54%
    19:00 +25°C° 0 mm 5 m/s 694 mmHg 61%
    20:00 +22°C° 0 mm 5 m/s 694 mmHg 68%
    21:00 +22°C° 0 mm 4 m/s 694 mmHg 69%
    22:00 +21°C° 0 mm 4 m/s 694 mmHg 70%
    23:00 +21°C° 0 mm 3 m/s 694 mmHg 71%

    18 Outubro, Sexta-feira

    Tempo Temperatura Precipitação Vento Pressão Humidade
    00:00 +20°C° 0 mm 3 m/s 693 mmHg 69%
    01:00 +20°C° 0 mm 3 m/s 693 mmHg 68%
    02:00 +20°C° 0 mm 2 m/s 693 mmHg 67%
    03:00 +19°C° 0 mm 2 m/s 693 mmHg 68%
    04:00 +19°C° 0 mm 2 m/s 693 mmHg 69%
    05:00 +19°C° 0 mm 2 m/s 693 mmHg 70%
    06:00 +19°C° 0 mm 2 m/s 693 mmHg 69%
    07:00 +20°C° 0 mm 2 m/s 694 mmHg 68%
    08:00 +21°C° 0 mm 2 m/s 694 mmHg 67%
    09:00 +23°C° 0 mm 2 m/s 694 mmHg 59%
    10:00 +25°C° 0 mm 2 m/s 694 mmHg 52%
    11:00 +27°C° 0 mm 3 m/s 694 mmHg 44%
    12:00 +28°C° 0 mm 3 m/s 694 mmHg 41%
    13:00 +29°C° 0 mm 3 m/s 693 mmHg 37%
    14:00 +30°C° 0 mm 4 m/s 693 mmHg 33%
    15:00 +29°C° 0 mm 4 m/s 693 mmHg 34%
    16:00 +28°C° 0 mm 5 m/s 693 mmHg 34%
    17:00 +27°C° 0 mm 6 m/s 693 mmHg 35%
    18:00 +25°C° 0 mm 5 m/s 693 mmHg 40%
    19:00 +23°C° 0 mm 5 m/s 693 mmHg 46%
    20:00 +21°C° 0 mm 4 m/s 693 mmHg 52%
    21:00 +21°C° 0 mm 4 m/s 693 mmHg 57%
    22:00 +20°C° 0 mm 3 m/s 693 mmHg 63%
    23:00 +19°C° 0 mm 3 m/s 693 mmHg 68%

    19 Outubro, Sábado

    Tempo Temperatura Precipitação Vento Pressão Humidade
    00:00 +19°C° 0 mm 2 m/s 693 mmHg 69%
    01:00 +18°C° 0 mm 2 m/s 693 mmHg 70%
    02:00 +18°C° 0 mm 2 m/s 693 mmHg 71%
    03:00 +18°C° 0 mm 2 m/s 693 mmHg 69%
    04:00 +17°C° 0 mm 2 m/s 693 mmHg 67%
    05:00 +17°C° 0 mm 2 m/s 693 mmHg 65%
    06:00 +18°C° 0 mm 2 m/s 693 mmHg 57%
    07:00 +20°C° 0 mm 2 m/s 694 mmHg 50%
    08:00 +21°C° 0 mm 2 m/s 694 mmHg 43%
    09:00 +24°C° 0 mm 3 m/s 694 mmHg 37%
    10:00 +26°C° 0 mm 3 m/s 695 mmHg 30%
    11:00 +28°C° 0 mm 3 m/s 695 mmHg 24%
    12:00 +28°C° 0 mm 4 m/s 694 mmHg 23%
    13:00 +29°C° 0 mm 5 m/s 694 mmHg 22%
    14:00 +30°C° 0 mm 6 m/s 694 mmHg 21%
    15:00 +29°C° 0 mm 6 m/s 694 mmHg 25%
    16:00 +27°C° 0 mm 6 m/s 694 mmHg 28%
    17:00 +26°C° 0 mm 6 m/s 694 mmHg 31%
    18:00 +25°C° 0 mm 5 m/s 694 mmHg 39%
    19:00 +23°C° 0 mm 5 m/s 694 mmHg 48%
    20:00 +21°C° 0 mm 4 m/s 695 mmHg 56%
    21:00 +21°C° 0 mm 3 m/s 695 mmHg 61%
    22:00 +20°C° 0 mm 3 m/s 695 mmHg 66%
    23:00 +19°C° 0 mm 2 m/s 695 mmHg 71%

    20 Outubro, Domingo

    Tempo Temperatura Precipitação Vento Pressão Humidade
    00:00 +19°C° 0 mm 2 m/s 694 mmHg 69%
    01:00 +20°C° 0 mm 1 m/s 694 mmHg 67%
    02:00 +19°C° 0 mm 1 m/s 694 mmHg 66%
    03:00 +19°C° 0 mm 1 m/s 694 mmHg 64%
    04:00 +19°C° 0 mm 1 m/s 693 mmHg 63%
    05:00 +18°C° 0 mm 2 m/s 693 mmHg 62%
    06:00 +19°C° 0 mm 2 m/s 694 mmHg 56%
    07:00 +20°C° 0 mm 2 m/s 694 mmHg 50%
    08:00 +23°C° 0 mm 2 m/s 695 mmHg 44%
    09:00 +24°C° 0 mm 3 m/s 695 mmHg 39%
    10:00 +26°C° 0 mm 3 m/s 695 mmHg 33%
    11:00 +27°C° 0 mm 4 m/s 695 mmHg 27%
    12:00 +28°C° 0 mm 5 m/s 695 mmHg 25%
    13:00 +28°C° 0 mm 5 m/s 695 mmHg 23%
    14:00 +28°C° 0 mm 6 m/s 694 mmHg 21%
    15:00 +27°C° 0 mm 6 m/s 694 mmHg 25%
    16:00 +26°C° 0 mm 6 m/s 694 mmHg 28%
    17:00 +24°C° 0 mm 6 m/s 694 mmHg 31%
    18:00 +23°C° 0 mm 5 m/s 694 mmHg 38%
    19:00 +22°C° 0 mm 5 m/s 694 mmHg 44%
    20:00 +21°C° 0 mm 4 m/s 695 mmHg 50%
    21:00 +20°C° 0 mm 4 m/s 695 mmHg 55%
    22:00 +19°C° 0 mm 3 m/s 695 mmHg 59%
    23:00 +19°C° 0 mm 3 m/s 695 mmHg 64%
    Mostrar mais